Location: Newark
(34.0131°N, 4.3314°W)
Time: 21:47:58
(UTC+00:00)

A-11 Canister half - Pass Details

Date: 30 October 2019
Orbit: 1514 x 1685 km, 47.2° (Epoch: 19 November)

Event Time Altitude Azimuth Distance (km) Brightness Sun altitude
Rises 04:07:33 0° 301° (WNW) 4,879 - -31.0°
Reaches altitude 10° 04:10:56 10° 307° (NW) 3,869 - -30.3°
Exits shadow 04:15:41 30° 325° (NW) 2,609 9.9 -29.3°
Maximum altitude 04:20:22 48° 20° (NNE) 2,000 9.6 -28.3°
Drops below altitude 10° 04:29:26 10° 93° (E) 3,733 12.0 -26.5°
Sets 04:32:38 0° 99° (E) 4,696 12.8 -25.8°
